Track OPTUS B1 (AUSSAT B1) now! OPTUS B1 (AUSSAT B1) is classified as:
1 22087U 92054A 21108.91871757 .00000023 00000-0 00000-0 0 9991 2 22087 10.5119 36.3958 0012529 45.2088 129.7719 0.99204545116000